This is the latest recevied weather packets stored in our database for station/object DB0BIN. If no packets are shown the sender has not sent any weather packets the latest 1 day(s).
| Time | Temp. | Humidity | Pressure | Rain* | Wind** | Luminosity | Snow |
|---|---|---|---|---|---|---|---|
| 1778060105 | 16.11° C | - | 1005 hPa | 8.89 mm | - | - | - |
| 1778057705 | 15.56° C | - | 1005 hPa | 8.89 mm | - | - | - |
| 1778056505 | 14.44° C | - | 1004.7 hPa | 8.89 mm | - | - | - |
| 1778054105 | 13.33° C | - | 1005 hPa | 8.89 mm | - | - | - |
| 1778053805 | 13.33° C | - | 1004.7 hPa | 8.89 mm | - | - | - |
| 1778053505 | 13.33° C | - | 1005 hPa | 8.89 mm | - | - | - |
| 1778052305 | 12.78° C | - | 1005.1 hPa | 8.89 mm | - | - | - |
| 1778048705 | 10° C | - | 1004.7 hPa | 8.89 mm | - | - | - |
| 1778048105 | 9.44° C | - | 1004.7 hPa | 8.89 mm | - | - | - |
| 1778047505 | 9.44° C | - | 1005 hPa | 8.89 mm | - | - | - |
| 1778046905 | 8.89° C | - | 1005 hPa | 8.89 mm | - | - | - |
| 1778046606 | 8.89° C | - | 1005 hPa | 8.89 mm | - | - | - |
| 1778046305 | 8.33° C | - | 1005.1 hPa | 8.89 mm | - | - | - |
| 1778046005 | 8.89° C | - | 1005.1 hPa | 8.89 mm | - | - | - |
| 1778045705 | 8.33° C | - | 1005.2 hPa | 8.89 mm | - | - | - |
| 1778045105 | 8.33° C | - | 1005.2 hPa | 8.89 mm | - | - | - |
| 1778044205 | 8.33° C | - | 1005.2 hPa | 8.89 mm | - | - | - |
| 1778043905 | 8.33° C | - | 1005.2 hPa | 8.89 mm | - | - | - |
| 1778043305 | 8.33° C | - | 1005.2 hPa | 8.89 mm | - | - | - |
| 1778042705 | 8.33° C | - | 1005.4 hPa | 8.89 mm | - | - | - |
| 1778042405 | 8.33° C | - | 1005.2 hPa | 8.89 mm | - | - | - |
| 1778042105 | 8.89° C | - | 1005.4 hPa | 8.89 mm | - | - | - |
| 1778041505 | 8.33° C | - | 1005.4 hPa | 8.89 mm | - | - | - |
| 1778040905 | 8.33° C | - | 1005.4 hPa | 8.89 mm | - | - | - |
| 1778040605 | 8.33° C | - | 1005.2 hPa | 8.89 mm | - | - | - |
* Rain latest 24 hours (hover to see other rain measurements)
** Current wind speed in m/s (hover to see current wind gust speed)